TimeCDT,TemperatureF,Dew PointF,Humidity,Sea Level PressureIn,VisibilityMPH,Wind Direction,Wind SpeedMPH,Gust SpeedMPH,PrecipitationIn,Events,Conditions,WindDirDegrees,DateUTC
12:15 AM,60.1,57.7,92,30.06,10.0,North,11.5,18.4,N/A,,Overcast,360,2012-10-07 05:15:00
12:35 AM,60.1,57.7,92,30.06,10.0,North,11.5,-,N/A,,Overcast,350,2012-10-07 05:35:00
12:55 AM,59.9,57.2,91,30.07,10.0,North,16.1,19.6,N/A,,Overcast,360,2012-10-07 05:55:00
1:15 AM,59.4,56.8,91,30.08,10.0,North,11.5,-,N/A,,Overcast,360,2012-10-07 06:15:00
1:35 AM,59.0,56.5,91,30.08,10.0,North,13.8,20.7,N/A,,Overcast,360,2012-10-07 06:35:00
1:55 AM,58.8,56.3,91,30.08,10.0,North,13.8,18.4,N/A,,Overcast,360,2012-10-07 06:55:00
2:15 AM,58.3,56.3,93,30.08,10.0,North,13.8,-,N/A,,Overcast,360,2012-10-07 07:15:00
2:35 AM,58.3,56.3,93,30.08,10.0,North,9.2,-,N/A,,Overcast,10,2012-10-07 07:35:00
2:55 AM,58.1,56.3,94,30.08,10.0,North,13.8,17.3,N/A,,Overcast,360,2012-10-07 07:55:00
3:15 AM,58.1,55.8,92,30.08,10.0,North,12.7,20.7,N/A,,Overcast,10,2012-10-07 08:15:00
3:35 AM,57.2,55.4,94,30.08,10.0,North,8.1,-,N/A,,Mostly Cloudy,360,2012-10-07 08:35:00
3:55 AM,57.2,55.8,95,30.08,10.0,North,8.1,-,N/A,,Overcast,360,2012-10-07 08:55:00
4:15 AM,57.6,55.6,93,30.08,10.0,North,15.0,-,N/A,,Overcast,360,2012-10-07 09:15:00
4:35 AM,56.8,54.5,92,30.09,10.0,North,11.5,18.4,N/A,,Overcast,360,2012-10-07 09:35:00
4:55 AM,56.3,53.8,91,30.09,10.0,North,12.7,18.4,N/A,,Overcast,10,2012-10-07 09:55:00
5:15 AM,56.3,53.6,91,30.09,10.0,North,10.4,16.1,N/A,,Overcast,360,2012-10-07 10:15:00
5:35 AM,56.3,53.6,91,30.10,10.0,North,9.2,-,N/A,,Overcast,360,2012-10-07 10:35:00
5:55 AM,56.3,53.6,91,30.10,10.0,North,9.2,-,N/A,,Overcast,360,2012-10-07 10:55:00
6:15 AM,56.3,53.6,91,30.11,10.0,NNE,8.1,-,N/A,,Overcast,20,2012-10-07 11:15:00
6:35 AM,56.3,53.6,91,30.11,10.0,North,8.1,-,N/A,,Overcast,360,2012-10-07 11:35:00
6:55 AM,56.1,53.6,91,30.11,10.0,North,11.5,-,N/A,,Overcast,360,2012-10-07 11:55:00
7:15 AM,56.3,53.2,89,30.12,10.0,North,9.2,-,N/A,,Overcast,350,2012-10-07 12:15:00
7:35 AM,55.9,52.9,89,30.13,10.0,North,11.5,17.3,N/A,,Overcast,360,2012-10-07 12:35:00
7:55 AM,56.3,52.7,88,30.13,10.0,North,11.5,-,N/A,,Overcast,360,2012-10-07 12:55:00
8:15 AM,56.3,52.2,86,30.13,10.0,North,10.4,-,N/A,,Overcast,360,2012-10-07 13:15:00
8:35 AM,56.7,52.3,85,30.14,10.0,North,11.5,16.1,N/A,,Overcast,360,2012-10-07 13:35:00
8:55 AM,57.0,52.0,83,30.14,10.0,North,13.8,19.6,N/A,,Overcast,10,2012-10-07 13:55:00
9:15 AM,57.2,51.8,82,30.15,10.0,North,13.8,19.6,N/A,,Overcast,10,2012-10-07 14:15:00
9:35 AM,57.2,51.6,82,30.16,10.0,North,10.4,19.6,N/A,,Overcast,10,2012-10-07 14:35:00
9:55 AM,58.6,52.3,80,30.16,10.0,NNE,12.7,17.3,N/A,,Overcast,20,2012-10-07 14:55:00
10:15 AM,59.7,52.5,77,30.16,10.0,NNE,9.2,-,N/A,,Overcast,20,2012-10-07 15:15:00
10:35 AM,60.8,52.7,75,30.15,10.0,North,11.5,17.3,N/A,,Overcast,360,2012-10-07 15:35:00
10:55 AM,62.2,53.1,72,30.15,10.0,NNE,10.4,-,N/A,,Overcast,20,2012-10-07 15:55:00
11:15 AM,64.4,54.1,69,30.15,10.0,North,12.7,18.4,N/A,,Scattered Clouds,360,2012-10-07 16:15:00
11:35 AM,65.3,54.3,68,30.14,10.0,North,11.5,16.1,N/A,,Clear,360,2012-10-07 16:35:00
11:55 AM,66.0,54.5,66,30.14,10.0,NNE,11.5,-,N/A,,Clear,30,2012-10-07 16:55:00
12:15 PM,65.7,54.3,67,30.14,10.0,North,12.7,18.4,N/A,,Clear,350,2012-10-07 17:15:00
12:35 PM,65.8,54.7,67,30.13,10.0,North,13.8,20.7,N/A,,Clear,360,2012-10-07 17:35:00
12:55 PM,65.8,54.5,67,30.13,10.0,North,13.8,18.4,N/A,,Clear,10,2012-10-07 17:55:00
1:15 PM,67.1,55.8,67,30.12,10.0,NNE,10.4,16.1,N/A,,Clear,30,2012-10-07 18:15:00
1:35 PM,66.7,55.0,66,30.11,10.0,North,11.5,17.3,N/A,,Clear,360,2012-10-07 18:35:00
1:55 PM,67.5,55.2,65,30.10,10.0,North,11.5,18.4,N/A,,Clear,10,2012-10-07 18:55:00
2:15 PM,68.0,55.4,64,30.09,10.0,NNE,9.2,17.3,N/A,,Clear,20,2012-10-07 19:15:00
2:35 PM,69.4,56.3,63,30.08,10.0,North,12.7,17.3,N/A,,Clear,10,2012-10-07 19:35:00
2:55 PM,69.8,56.1,62,30.07,10.0,North,10.4,18.4,N/A,,Clear,10,2012-10-07 19:55:00
3:15 PM,71.2,57.0,61,30.06,10.0,NNE,12.7,18.4,N/A,,Clear,30,2012-10-07 20:15:00
3:35 PM,70.9,56.7,61,30.05,10.0,North,12.7,-,N/A,,Clear,360,2012-10-07 20:35:00
3:55 PM,71.6,57.0,60,30.05,10.0,North,12.7,16.1,N/A,,Clear,360,2012-10-07 20:55:00
4:15 PM,71.6,57.2,60,30.04,10.0,North,13.8,18.4,N/A,,Clear,360,2012-10-07 21:15:00
4:35 PM,70.2,56.3,61,30.04,10.0,NNE,12.7,17.3,N/A,,Clear,20,2012-10-07 21:35:00
4:55 PM,70.2,56.5,62,30.04,10.0,NNE,11.5,-,N/A,,Clear,30,2012-10-07 21:55:00
5:15 PM,70.0,56.5,62,30.04,10.0,North,12.7,18.4,N/A,,Clear,360,2012-10-07 22:15:00
5:35 PM,69.1,56.3,64,30.05,10.0,North,10.4,-,N/A,,Clear,10,2012-10-07 22:35:00
5:55 PM,68.5,56.3,65,30.05,10.0,North,9.2,-,N/A,,Clear,10,2012-10-07 22:55:00
6:15 PM,67.1,55.8,67,30.06,10.0,North,11.5,18.4,N/A,,Clear,10,2012-10-07 23:15:00
6:35 PM,65.3,54.7,68,30.06,10.0,North,11.5,17.3,N/A,,Clear,10,2012-10-07 23:35:00
6:55 PM,64.0,54.5,71,30.08,10.0,North,12.7,16.1,N/A,,Clear,10,2012-10-07 23:55:00
7:15 PM,63.0,54.5,74,30.08,10.0,North,9.2,-,N/A,,Clear,10,2012-10-08 00:15:00
7:55 PM,61.7,54.7,78,30.10,10.0,NNE,8.1,-,N/A,,Clear,20,2012-10-08 00:55:00
8:15 PM,60.8,54.1,79,30.11,10.0,NNE,10.4,17.3,N/A,,Clear,20,2012-10-08 01:15:00
8:55 PM,59.4,53.4,81,30.12,10.0,NNE,8.1,-,N/A,,Clear,20,2012-10-08 01:55:00
9:15 PM,59.0,53.1,81,30.13,10.0,NNE,8.1,16.1,N/A,,Clear,30,2012-10-08 02:15:00
9:35 PM,58.1,53.1,83,30.13,10.0,NNE,9.2,-,N/A,,Clear,30,2012-10-08 02:35:00
9:55 PM,57.6,53.1,85,30.13,10.0,NNE,5.8,-,N/A,,Clear,20,2012-10-08 02:55:00
10:15 PM,57.2,53.6,88,30.13,10.0,NNE,5.8,-,N/A,,Scattered Clouds,30,2012-10-08 03:15:00
10:35 PM,56.8,53.6,89,30.13,10.0,NE,5.8,-,N/A,,Scattered Clouds,40,2012-10-08 03:35:00
10:55 PM,56.3,53.6,91,30.13,10.0,NNE,3.5,-,N/A,,Scattered Clouds,20,2012-10-08 03:55:00
11:15 PM,55.9,54.0,93,30.13,10.0,North,4.6,-,N/A,,Clear,10,2012-10-08 04:15:00
11:35 PM,55.8,53.6,92,30.13,10.0,North,4.6,-,N/A,,Scattered Clouds,10,2012-10-08 04:35:00
11:55 PM,55.4,53.6,94,30.13,10.0,North,3.5,-,N/A,,Clear,10,2012-10-08 04:55:00